Theta_e
309 309 309 309 309 309 309 309 309 309 309 309 309 309 309 308 308 308 308 308 308 308 308 308 308 310 313 314 314 315 315 314 313 315 318 319 317 319 318 317 317 315 314 312 315 319 318 315 315 315 316 319 320 324 323 322 327 331 332 325 325 327 327 333 329 321 324 326 322 318 319 318 319 319 315 314 315 316 316 317 318 317 315 313 313 313 312 311
309 308 308 308 308 308 308 308 308 309 309 309 309 309 309 309 309 308 308 307 307 308 307 308 307 308 312 313 314 315 315 314 316 317 317 317 318 321 319 317 316 315 313 313 316 318 317 317 315 315 318 322 323 322 322 324 325 331 333 327 328 332 330 329 323 320 321 320 321 320 320 318 318 320 316 315 318 317 316 317 316 316 315 312 311 310 310 309
309 308 308 308 308 308 308 308 308 308 308 308 309 309 309 309 309 308 308 307 307 308 307 308 307 308 310 313 314 314 315 320 325 324 319 317 318 321 320 317 315 313 313 313 318 318 317 317 314 316 319 321 323 324 325 324 324 329 329 326 332 333 327 324 320 320 320 318 320 319 318 317 317 318 315 316 319 318 317 316 316 316 316 315 311 307 308 308
309 308 308 308 308 308 307 307 307 307 307 307 308 308 308 308 308 308 308 308 308 307 308 307 307 308 309 313 314 314 318 324 330 326 319 320 320 320 319 316 313 312 312 313 316 317 316 316 314 317 319 319 324 325 327 325 323 326 324 325 332 326 322 323 320 320 320 319 319 319 318 317 318 316 315 317 317 317 316 315 316 317 315 314 311 307 306 306
309 309 308 308 308 308 308 307 307 307 307 307 307 307 308 308 308 308 308 308 308 307 307 307 308 308 309 313 314 316 319 318 323 322 317 319 319 320 318 315 312 311 312 313 314 315 315 315 314 318 319 321 324 323 327 327 323 324 322 322 326 323 322 322 320 321 320 318 318 319 318 317 318 316 316 317 317 316 316 315 315 315 315 314 311 308 306 305
310 310 309 309 309 308 308 308 307 307 307 307 307 307 307 307 307 308 308 308 308 307 307 307 308 307 310 314 314 317 318 313 319 321 316 317 318 318 316 313 312 311 312 313 314 314 315 316 316 320 320 320 322 322 325 324 321 323 323 321 321 321 321 319 319 322 320 316 317 318 316 316 317 317 317 316 316 316 317 319 317 316 313 311 310 308 307 307
311 311 310 310 309 309 309 308 308 307 307 307 307 307 307 307 307 308 308 308 308 308 307 307 307 308 310 315 318 322 323 320 321 319 315 316 316 316 313 312 311 310 312 313 314 315 317 318 317 320 320 320 321 320 321 320 320 323 323 321 320 320 320 319 318 321 320 317 318 318 315 316 317 317 317 316 315 315 316 318 318 315 311 310 311 309 309 308
312 312 311 311 310 310 309 309 308 307 307 307 307 307 307 308 308 308 308 308 308 308 307 307 307 309 311 316 324 327 326 324 318 316 316 315 314 313 312 311 310 311 313 313 315 316 317 318 318 319 319 320 320 319 319 319 320 322 322 320 319 319 319 319 318 319 319 317 318 317 316 317 317 316 315 315 315 314 315 315 316 315 313 315 314 311 309 309
314 313 313 312 311 311 310 310 309 308 307 307 307 308 308 308 308 308 308 308 308 308 308 307 307 309 311 316 322 322 321 322 318 318 317 314 313 311 311 311 310 311 312 313 314 314 316 319 319 318 319 321 319 318 318 318 321 321 319 319 318 318 317 317 317 316 318 318 317 316 316 316 315 314 314 315 314 314 314 315 316 315 316 317 315 312 310 310
315 314 314 314 313 312 312 310 309 309 308 308 307 307 308 308 309 309 309 308 308 308 308 308 308 310 311 316 321 318 317 321 320 319 318 314 312 311 311 312 311 311 312 314 313 313 316 318 319 319 319 318 317 318 319 319 320 318 317 318 317 316 316 315 316 316 315 316 316 316 316 315 314 314 314 315 314 314 314 314 315 315 315 315 314 312 310 310
315 315 315 315 314 313 313 311 310 309 308 308 307 308 308 308 308 309 309 309 309 308 307 308 309 310 313 319 323 319 316 319 318 317 316 315 313 312 312 312 312 312 312 314 313 313 315 316 317 318 317 317 317 318 319 317 316 316 316 317 317 316 316 315 315 315 314 315 316 316 315 315 314 314 314 314 315 316 316 316 315 314 314 314 313 312 310 310
316 316 316 315 315 314 314 312 310 309 308 307 306 307 307 307 307 307 309 309 309 309 307 308 309 310 315 320 323 318 315 316 317 315 314 314 314 313 312 312 313 312 313 315 316 317 316 316 316 317 318 317 316 317 317 315 314 316 315 316 317 315 315 315 315 315 314 315 316 314 315 315 314 314 314 314 314 315 316 316 316 315 314 313 313 312 311 309
316 316 316 316 315 314 314 312 311 309 308 307 306 307 306 306 306 306 307 309 309 309 307 308 310 312 316 320 320 316 315 315 315 315 314 314 313 314 313 312 312 311 312 314 316 318 316 315 316 318 318 317 317 316 314 314 315 316 315 315 316 315 316 315 314 316 314 315 316 314 315 317 315 314 314 313 313 314 314 314 315 315 314 313 313 312 312 310
317 316 316 316 315 314 313 312 310 309 308 308 308 307 307 307 306 306 307 308 309 308 309 310 310 314 318 319 317 316 316 316 315 314 314 313 312 313 313 312 312 311 311 312 313 314 314 313 314 315 315 316 317 315 314 316 316 315 315 317 317 316 318 317 315 317 315 314 315 315 315 316 316 315 313 313 313 313 313 313 313 314 314 313 313 313 312 311
317 316 316 315 314 313 312 311 310 309 309 308 308 308 309 309 308 308 307 307 309 308 310 311 312 317 320 319 316 316 316 315 314 315 314 313 313 314 313 311 311 311 311 312 311 311 312 313 314 315 316 315 315 315 317 319 319 316 315 319 321 318 318 317 316 316 316 314 312 314 315 315 315 315 314 313 312 313 313 313 313 312 313 313 313 313 313 312
316 316 315 315 315 313 311 310 310 310 310 309 309 309 309 309 309 309 307 308 308 308 310 313 314 317 318 316 316 315 314 314 314 314 315 313 313 315 314 311 312 312 312 312 311 311 312 313 314 316 317 316 316 317 319 321 322 320 316 317 321 320 316 317 318 317 317 315 312 314 316 316 316 316 315 313 313 313 313 313 314 313 312 312 312 312 312 312
316 315 315 316 316 313 310 310 310 310 310 309 309 309 309 310 310 309 308 309 311 310 312 316 317 315 313 312 314 316 315 314 314 315 314 313 314 315 314 313 313 313 312 311 312 312 312 315 315 315 317 316 318 320 320 320 320 319 318 317 319 318 316 317 320 318 315 316 314 313 314 315 316 316 316 315 314 314 314 314 314 314 313 312 312 311 312 312
315 315 315 316 315 312 311 311 310 310 309 309 309 309 309 311 312 311 310 311 314 313 312 317 317 314 315 315 315 316 316 314 315 315 314 313 314 315 313 313 314 313 313 313 313 313 313 315 316 318 319 316 316 318 319 318 315 317 320 320 318 317 316 316 318 317 315 315 315 314 313 313 313 313 314 313 313 313 315 315 314 314 314 313 312 311 311 311
316 316 315 314 313 312 312 311 309 310 309 308 308 308 311 315 315 314 313 315 319 318 315 316 318 316 317 318 317 317 317 316 316 315 314 313 314 315 314 313 314 314 314 316 315 314 315 316 318 320 319 316 315 314 316 315 313 317 320 319 317 316 315 314 316 317 317 316 316 315 313 313 313 312 313 312 312 312 313 314 313 313 313 313 312 311 311 311
316 315 315 314 313 312 312 311 310 311 310 309 310 312 317 320 318 316 315 317 321 320 317 316 316 317 316 317 318 317 317 315 315 316 313 312 312 313 313 312 315 315 315 320 320 316 316 317 319 320 317 315 315 314 314 314 314 315 317 316 316 315 314 314 315 317 317 317 317 317 315 314 313 313 313 312 312 313 313 312 312 312 312 312 313 312 312 312
316 315 315 314 313 313 312 311 311 311 309 310 312 314 317 316 316 316 313 315 315 313 316 315 312 314 315 316 316 315 317 315 314 315 312 311 311 313 313 312 316 316 315 318 320 318 316 316 318 317 315 315 316 316 314 314 314 314 315 315 315 316 316 315 315 316 316 315 316 316 315 314 314 313 313 313 313 313 313 313 313 312 312 313 313 313 313 312
316 316 315 315 315 315 314 313 312 310 309 311 311 313 313 309 310 312 310 314 314 309 311 313 311 312 312 313 315 315 315 315 315 316 313 310 311 313 313 312 315 317 315 315 317 317 317 317 316 314 314 315 316 316 314 314 315 315 316 316 317 317 316 314 315 316 315 315 318 318 315 313 313 313 312 313 313 313 313 313 313 314 313 312 312 313 312 313
316 316 315 316 316 316 316 314 313 311 310 312 311 309 308 306 306 308 310 315 316 312 311 311 310 311 311 312 314 314 314 314 315 317 314 311 311 313 312 311 314 315 315 314 315 316 317 317 315 314 315 316 315 315 315 314 314 316 316 316 316 316 315 314 314 316 315 315 318 318 315 312 312 313 313 313 313 313 314 314 314 315 314 314 313 313 313 313
316 316 316 316 316 317 317 316 316 313 311 313 311 307 306 306 305 308 313 317 317 315 313 310 309 310 312 312 312 315 315 313 313 315 313 312 312 313 312 312 312 313 314 314 313 314 314 316 318 316 315 316 316 315 315 315 313 315 315 315 315 315 316 314 314 317 317 316 317 316 315 314 314 314 314 314 313 313 313 313 314 314 314 314 314 315 314 314
316 316 316 316 316 317 317 317 317 314 313 313 311 307 307 306 305 307 313 318 317 316 314 310 310 311 311 312 312 314 313 311 314 315 312 311 312 312 312 311 311 312 313 312 313 313 311 315 319 317 316 317 316 316 317 317 314 314 316 317 315 315 316 315 316 317 320 322 319 317 317 316 317 317 315 314 314 314 314 313 314 314 313 314 314 314 314 316
317 317 316 316 316 317 318 319 316 314 315 313 310 309 308 306 306 306 310 317 318 316 314 312 313 313 312 312 311 312 312 311 312 313 311 311 311 312 311 311 312 312 312 312 312 312 311 314 318 318 320 320 318 317 319 319 314 313 320 322 318 316 317 319 320 321 325 326 320 319 321 319 317 317 315 315 316 317 316 316 315 315 314 314 314 314 314 317
317 317 317 316 315 316 319 319 316 315 316 315 311 308 307 307 307 306 311 318 320 318 316 314 313 312 312 311 310 311 314 312 310 309 310 310 311 312 311 312 312 311 312 314 313 314 314 313 317 319 319 319 318 317 320 321 316 315 324 329 324 321 322 322 322 324 327 324 318 320 324 320 317 316 316 316 316 317 315 315 315 314 314 314 314 314 315 318
318 318 317 316 315 315 316 316 315 315 316 314 310 307 307 308 307 309 314 319 320 319 317 314 311 311 312 311 310 311 311 310 313 311 307 307 310 312 313 312 312 312 313 315 315 317 318 317 320 320 318 319 317 314 319 320 316 318 323 326 325 323 323 322 320 322 325 320 317 320 320 318 316 315 315 315 313 314 313 313 314 313 314 314 314 314 314 317
319 319 318 317 317 316 315 315 315 315 316 312 307 307 308 306 306 311 318 318 318 318 316 312 310 311 313 311 311 313 309 309 313 311 306 308 309 309 312 312 310 311 312 313 313 315 318 317 317 320 319 318 316 318 323 321 318 320 320 320 326 326 322 320 317 318 323 320 318 321 318 316 316 315 315 314 313 314 313 313 314 313 314 314 314 314 314 316
321 320 320 319 318 317 316 316 315 316 316 310 307 308 308 308 309 313 318 317 315 316 312 310 311 312 313 313 313 312 310 310 310 309 309 309 309 308 310 310 309 312 314 315 314 313 314 312 313 319 319 317 320 320 318 318 318 319 318 320 328 330 326 326 323 319 320 319 319 321 319 316 316 316 316 315 316 317 314 314 314 313 314 313 313 314 313 316
323 321 321 320 319 319 316 316 316 316 315 309 307 309 310 312 313 315 319 315 314 316 313 311 313 312 312 314 316 312 310 311 310 310 311 310 310 310 310 310 310 314 315 315 314 313 312 312 314 320 319 318 320 316 315 319 318 317 322 322 324 330 330 327 323 319 318 318 319 320 320 317 316 316 316 316 317 316 314 314 315 317 317 314 313 313 312 316
324 323 323 321 320 320 317 318 317 315 315 310 309 314 316 315 315 316 318 316 316 318 317 318 316 313 313 312 316 315 312 313 311 310 313 313 313 311 309 312 314 314 317 317 314 312 314 313 313 316 317 317 318 317 321 323 319 317 322 322 320 324 323 320 321 323 321 319 318 317 317 316 314 314 316 316 317 317 315 314 317 320 319 316 316 314 314 319
324 324 323 322 321 320 318 318 316 315 316 313 314 321 321 320 322 321 316 316 320 320 320 323 319 316 316 316 319 319 314 315 313 309 311 313 313 312 310 313 315 315 319 320 316 316 320 319 314 313 314 317 317 317 319 320 318 316 318 321 321 320 319 317 323 326 321 319 321 316 316 317 315 316 318 315 314 317 316 313 316 319 318 317 317 315 317 320
323 323 323 322 321 320 320 318 316 315 315 314 318 323 320 322 328 325 318 317 318 317 318 322 319 316 317 319 323 321 315 318 315 310 312 313 313 316 316 313 313 314 317 318 318 320 322 320 316 314 317 318 315 313 315 317 318 314 315 318 319 323 326 321 322 323 318 324 328 318 317 322 317 317 321 317 313 316 315 314 315 315 315 315 316 319 321 319
322 322 322 321 320 320 320 319 317 315 313 314 318 320 319 323 326 324 324 323 319 318 318 318 318 318 320 323 324 321 316 319 317 312 314 314 314 320 320 313 310 312 314 316 320 321 318 319 318 315 318 318 314 314 313 314 318 315 316 316 314 321 325 318 319 321 316 323 325 317 321 327 317 313 317 316 314 316 315 316 314 313 313 314 318 325 324 317
321 321 321 320 319 320 319 318 317 315 314 316 318 318 319 324 326 324 325 323 319 319 320 321 320 321 325 326 325 321 317 318 318 315 315 314 314 318 318 314 311 310 312 316 320 320 317 320 321 316 316 316 314 315 312 313 318 316 315 316 314 318 318 314 320 321 314 317 318 314 319 321 316 315 315 314 315 315 314 315 313 313 314 313 318 326 323 316
321 320 320 319 319 320 319 318 317 314 314 317 319 319 319 320 323 323 320 319 318 318 321 325 323 321 324 324 323 322 320 320 318 317 319 317 315 317 315 315 314 310 310 313 317 320 317 317 320 318 317 315 312 313 313 314 316 317 318 317 316 320 319 318 322 321 317 318 317 315 316 314 314 317 316 316 316 315 315 315 313 313 313 313 318 325 321 316
320 320 319 319 320 320 319 318 315 313 314 316 318 319 319 319 320 319 317 317 318 319 322 325 325 324 325 324 324 323 320 321 320 319 321 319 317 317 315 315 316 312 310 310 314 321 319 314 318 320 318 315 311 312 315 314 314 318 320 318 318 322 322 321 321 320 319 318 317 316 315 314 313 314 315 316 316 315 314 313 312 312 312 312 316 321 319 314
319 320 319 319 319 320 318 316 313 313 315 316 317 318 319 318 317 317 317 317 317 319 322 325 325 324 325 324 323 322 319 320 321 320 321 319 319 320 317 316 318 315 312 311 312 316 317 315 317 319 316 314 313 314 318 317 314 314 316 317 318 318 321 322 320 319 319 318 318 317 316 315 314 315 316 315 314 313 311 312 314 313 312 313 320 326 324 321
318 320 319 317 318 318 316 314 313 314 316 317 317 317 317 317 317 317 316 315 317 321 323 324 324 323 324 322 321 320 319 318 319 319 319 319 319 319 318 315 314 314 313 314 313 314 316 316 315 317 317 315 315 316 319 319 317 315 315 317 316 314 319 322 317 316 317 316 317 317 317 316 314 317 318 313 313 315 314 314 316 316 316 319 326 333 335 332
318 320 318 316 316 316 313 313 314 315 316 317 317 316 315 315 318 319 317 315 318 321 321 321 323 323 322 322 321 320 319 318 318 317 317 319 317 317 318 314 311 311 311 314 316 316 318 319 316 317 317 316 316 316 316 316 316 316 315 316 315 314 317 318 316 316 317 316 316 317 317 316 313 316 316 312 313 316 318 318 318 321 322 320 325 334 338 338
318 319 317 315 315 314 313 315 315 314 315 316 316 315 315 315 316 317 316 316 317 318 318 319 320 321 320 321 321 320 319 319 319 318 317 318 317 317 317 315 313 311 310 313 316 314 315 317 317 317 316 314 315 315 315 314 313 314 315 315 316 314 314 316 316 317 316 316 315 315 316 316 313 315 315 314 313 313 318 319 317 321 324 323 327 332 333 335
316 316 314 314 314 313 315 317 316 314 314 313 313 314 315 316 316 316 316 317 317 317 318 319 319 319 320 320 320 320 320 319 318 319 319 318 318 316 315 315 315 313 310 313 316 315 314 316 317 317 315 315 316 316 315 314 312 313 315 315 315 314 314 315 314 314 317 317 315 315 316 316 315 316 316 316 315 312 315 315 313 318 323 327 330 330 329 329
314 315 313 313 313 312 315 317 316 315 314 312 312 312 313 314 315 315 316 317 318 319 319 319 318 319 320 320 319 319 321 319 318 318 318 318 319 317 315 316 317 316 314 314 315 315 315 317 317 317 317 317 318 317 315 314 313 315 317 317 316 315 314 315 313 313 315 316 314 315 315 315 317 318 315 314 314 312 313 313 312 314 319 324 326 325 326 326
311 313 314 312 311 312 315 316 315 315 314 313 313 312 312 313 313 314 314 315 316 318 318 319 319 320 320 320 320 318 319 319 318 317 316 316 317 316 315 315 316 317 316 316 315 314 315 316 316 316 318 319 318 318 317 315 314 314 315 316 316 316 315 315 315 315 315 315 315 315 314 314 315 315 314 313 312 312 312 312 312 312 314 317 317 316 319 322
309 311 313 313 312 312 314 315 315 316 314 313 313 312 312 313 313 313 313 313 314 315 316 317 318 319 319 319 319 318 318 318 317 317 317 316 315 316 316 315 314 315 316 317 316 315 315 315 314 314 316 317 317 317 316 315 315 314 314 314 314 315 315 314 314 315 315 315 315 315 315 314 314 314 313 312 312 312 311 311 312 311 312 312 312 313 317 319
307 309 312 314 313 313 314 314 315 316 315 314 314 313 313 313 312 313 313 314 314 314 314 315 315 316 318 318 318 318 318 318 317 317 316 316 316 316 316 315 314 315 316 316 316 316 315 314 313 313 313 314 314 314 314 314 314 314 314 314 313 313 313 313 314 313 313 314 314 314 314 315 314 313 312 312 312 311 311 311 311 311 312 312 312 313 315 316
305 306 310 312 312 313 314 314 314 314 314 314 314 313 314 314 313 313 313 313 313 313 315 316 315 315 316 317 317 317 317 318 318 317 316 316 316 316 316 315 315 315 315 314 314 316 315 313 313 314 313 312 312 312 313 313 313 313 313 313 313 312 313 313 313 312 312 313 313 312 313 314 313 311 311 311 311 311 311 311 311 311 311 311 311 312 313 312
303 304 306 307 307 310 311 310 310 311 312 313 313 314 315 315 314 313 313 314 314 314 314 315 315 315 315 316 316 316 317 318 318 317 316 316 316 316 316 316 315 315 314 314 314 317 316 314 313 314 314 313 313 313 313 313 313 313 313 313 313 312 313 312 312 312 312 312 312 311 312 312 311 311 311 311 311 311 311 311 311 311 310 311 311 311 310 310
302 303 304 303 304 305 306 306 307 309 310 310 312 313 313 314 314 313 312 313 314 313 313 314 314 314 313 314 315 315 316 316 316 316 315 315 316 316 316 316 317 315 314 313 314 315 315 316 316 315 315 314 313 313 313 313 313 314 314 313 313 313 313 313 313 312 312 313 312 312 312 312 310 310 310 310 310 310 310 310 311 310 310 310 310 310 310 310
299 301 301 301 302 303 304 305 306 307 308 309 311 311 311 311 311 310 309 311 312 312 312 312 311 309 308 308 311 312 310 308 308 309 308 309 311 313 314 315 316 316 314 313 313 313 313 315 316 316 316 316 315 314 314 313 314 314 314 314 314 315 314 314 313 313 313 313 313 313 313 312 311 310 311 311 311 310 310 310 310 310 311 311 311 310 310 310
297 298 299 300 301 302 302 304 304 304 305 306 308 308 308 309 308 307 307 309 309 309 309 307 306 305 306 307 308 306 302 301 302 303 303 304 307 309 311 313 314 315 314 314 314 312 312 313 314 315 317 317 316 315 314 314 314 315 315 314 314 315 314 314 314 313 312 312 313 313 313 312 311 311 312 311 311 311 310 310 310 310 310 310 310 310 310 310
Wind_Speed
15 15 16 16 16 16 15 15 15 14 14 14 14 14 14 13 13 14 14 14 15 15 15 16 16 13 11 11 10 9 10 9 11 9 9 10 8 7 7 5 5 5 3 2 5 7 3 3 7 8 4 3 2 1 2 3 2 3 3 2 3 3 4 5 4 3 2 2 4 5 5 6 3 3 0 1 1 2 3 4 4 5 3 2 6 13 22 30
16 16 16 16 16 16 16 16 15 15 14 14 14 13 13 13 13 13 13 14 14 15 15 16 17 15 12 12 11 10 10 9 10 12 16 17 13 11 10 9 8 7 5 4 6 8 5 4 7 6 2 1 2 1 2 2 2 3 3 2 4 5 5 5 4 4 2 3 5 5 6 6 5 4 2 2 5 4 5 6 4 7 4 4 9 19 25 30
16 16 17 16 17 17 17 17 16 16 15 15 14 14 13 13 13 12 12 12 13 14 15 15 16 16 13 12 12 11 9 6 6 9 13 14 16 15 12 11 9 8 7 6 6 6 5 4 5 5 4 2 3 2 2 2 1 3 3 2 6 7 6 6 5 3 3 4 4 3 3 4 5 4 3 4 6 6 8 8 5 9 10 5 8 16 24 26
16 17 17 17 17 17 17 17 17 17 16 16 15 14 14 14 13 13 12 12 12 13 14 15 16 16 12 11 11 9 7 5 3 4 5 6 11 14 14 11 8 8 7 6 6 6 6 6 4 3 5 3 3 2 3 4 3 2 5 5 8 5 4 8 7 3 2 2 3 1 1 3 5 4 4 4 4 8 9 10 10 12 13 10 9 13 20 22
17 17 18 18 17 17 18 18 18 17 17 16 16 15 14 14 14 14 13 12 12 13 13 14 15 14 11 8 7 7 5 4 3 3 4 4 6 11 13 11 9 8 7 6 6 5 5 6 2 1 2 3 3 2 4 7 4 2 5 8 9 5 5 8 6 4 2 2 2 0 2 5 3 3 5 7 7 10 7 9 12 13 12 12 14 14 16 16
18 18 19 19 18 18 18 18 18 18 18 17 17 16 15 14 14 14 13 13 12 12 13 14 14 13 9 5 4 3 2 1 4 3 5 3 4 9 11 11 10 8 8 7 5 2 3 3 1 0 1 2 4 4 6 6 6 5 6 6 8 7 6 7 5 4 3 2 3 3 3 3 2 5 6 9 14 13 6 7 10 10 11 14 17 15 14 15
18 19 19 20 19 19 19 19 19 19 18 18 18 17 16 15 14 14 13 12 11 12 13 13 14 12 6 2 1 2 3 5 8 7 7 3 4 9 10 10 10 8 9 8 6 3 2 2 2 3 2 4 5 6 7 4 5 8 7 5 7 7 8 8 6 5 6 6 7 3 1 2 5 7 4 9 17 16 8 6 7 7 6 10 14 14 15 17
19 19 20 20 20 20 20 19 20 19 19 19 19 18 17 16 15 14 14 12 11 11 12 13 14 11 5 2 1 3 0 7 11 10 8 4 5 9 10 9 9 9 10 10 9 6 2 2 5 3 2 5 3 4 5 3 2 8 7 5 5 5 7 8 6 6 6 7 5 3 5 8 9 3 6 14 18 14 10 7 9 8 5 8 13 16 16 15
19 20 21 21 21 21 21 21 20 20 20 19 19 19 18 17 16 16 15 14 12 12 12 13 13 8 5 2 3 2 4 8 9 8 7 5 7 9 10 9 9 10 9 10 11 7 3 3 5 4 3 4 3 5 3 2 3 7 7 5 5 6 7 7 8 9 7 6 4 5 11 10 6 2 9 21 20 14 9 8 10 9 8 9 11 15 16 16
19 21 22 22 22 23 23 22 21 21 20 20 19 19 19 18 17 16 16 16 14 12 13 13 11 6 5 2 4 1 6 6 6 7 7 7 9 11 11 9 9 10 8 8 10 8 6 5 4 3 3 3 3 5 2 2 4 4 4 6 8 8 7 6 9 11 8 6 7 9 13 9 3 2 9 20 14 9 9 11 11 9 11 11 10 12 14 16
18 19 21 22 23 25 24 24 22 22 21 20 20 20 20 19 18 17 16 17 14 13 13 11 9 5 4 2 4 4 6 6 7 7 7 8 10 12 12 12 11 11 9 6 8 8 7 6 2 2 2 2 2 5 4 3 2 4 4 8 12 8 9 10 11 13 7 5 9 11 10 8 1 5 14 21 8 5 9 12 11 10 12 12 12 12 11 12
18 17 19 21 23 25 25 25 23 22 22 21 21 21 20 20 18 17 17 17 15 13 13 11 8 5 4 1 5 10 9 7 9 7 8 8 10 12 12 13 12 11 10 6 5 4 4 4 2 3 4 1 1 4 4 2 2 4 3 6 14 9 9 16 14 12 7 4 7 9 5 8 6 12 21 23 9 4 8 10 10 11 12 12 12 10 9 12
18 18 20 20 22 25 25 25 23 22 21 21 22 21 21 20 18 17 16 16 15 13 13 10 7 6 4 2 7 13 13 12 10 9 10 9 9 11 12 13 13 12 12 9 6 3 2 3 4 5 4 0 2 3 2 1 2 5 1 2 10 8 9 15 10 8 7 5 9 10 2 9 13 18 21 19 11 7 9 12 12 10 10 11 11 10 11 13
17 19 22 21 23 25 24 24 23 21 21 21 21 21 20 19 18 16 15 15 14 12 10 7 7 6 4 5 8 10 13 13 12 12 12 12 10 10 12 13 12 12 11 11 10 7 5 3 2 2 2 2 3 4 4 3 2 4 2 2 4 3 8 12 5 3 3 4 10 10 4 11 15 16 15 14 12 10 11 14 13 11 10 9 10 11 12 13
17 19 22 22 23 25 25 23 22 21 21 21 21 20 19 18 17 17 16 15 13 12 8 6 8 6 1 7 9 8 11 11 13 17 14 13 13 9 10 12 11 10 9 9 8 6 6 3 3 1 2 2 1 2 4 4 3 2 2 4 3 4 8 12 6 6 6 4 6 9 4 11 17 15 12 11 9 10 12 14 13 12 13 11 11 11 12 13
19 20 21 20 22 25 23 21 20 20 20 21 22 21 19 18 17 17 17 14 11 11 6 4 9 7 1 4 4 5 9 9 12 16 13 14 14 9 10 11 8 7 7 7 6 5 6 5 2 3 1 2 2 2 3 4 5 2 4 6 6 5 6 8 7 5 9 4 4 8 6 8 12 11 11 8 8 10 11 13 13 12 13 12 11 11 12 13
19 19 18 18 21 23 20 19 20 21 21 21 22 21 20 18 17 16 13 7 5 6 8 3 4 6 2 3 3 5 8 10 12 14 14 14 12 10 11 7 5 7 5 3 4 4 4 3 1 1 0 2 3 5 3 3 7 4 3 5 6 7 6 5 6 3 6 8 7 11 8 11 14 10 11 9 6 8 10 12 14 13 12 12 11 11 12 13
17 17 16 16 18 18 17 19 20 21 21 22 21 21 20 16 12 7 2 4 3 3 4 3 1 2 4 5 5 4 4 9 12 14 15 15 12 12 11 4 3 6 4 1 3 4 2 1 2 1 2 3 4 6 5 9 9 5 4 4 6 7 7 9 8 2 6 6 7 9 9 15 20 15 14 14 8 7 9 11 12 12 13 12 11 12 13 13
15 16 15 15 15 15 16 18 20 20 21 22 21 18 15 9 4 2 5 7 5 4 2 4 4 3 4 6 5 1 3 7 10 11 13 14 12 11 8 3 4 6 4 1 2 4 4 1 3 3 5 9 9 9 12 14 10 6 6 6 7 7 7 11 11 5 8 5 7 10 11 15 20 19 18 17 12 9 11 10 10 11 12 12 12 13 12 14
14 14 14 14 15 15 16 18 18 18 19 21 21 14 6 3 3 2 2 2 4 5 3 5 7 5 5 2 3 4 4 6 6 7 12 14 12 8 4 1 3 2 4 4 3 3 6 5 4 7 13 14 10 11 15 14 9 8 8 9 10 8 9 13 12 7 7 5 8 12 15 16 18 20 18 15 10 11 13 12 12 13 12 13 16 16 13 16
13 13 13 14 15 16 17 17 16 16 18 18 16 8 2 2 2 3 4 5 9 11 10 9 11 11 9 4 7 9 5 3 4 5 12 14 12 8 4 3 4 3 5 5 2 1 4 7 9 15 17 11 8 11 13 12 10 11 9 10 10 8 11 14 11 9 6 5 8 11 14 16 17 18 16 11 9 12 15 13 14 15 14 14 17 18 16 16
12 12 12 12 14 16 18 16 13 16 18 16 13 6 2 4 1 1 1 4 9 12 12 12 13 13 13 12 11 11 4 5 7 5 12 13 9 7 4 5 6 5 5 4 2 3 4 8 13 17 12 6 6 9 10 11 11 9 8 8 9 6 10 12 10 9 5 5 8 10 12 14 15 16 14 11 11 13 15 15 17 17 14 14 17 17 16 16
11 11 10 11 13 15 17 14 11 16 18 14 12 7 4 5 2 1 1 2 8 9 7 10 13 11 13 14 12 12 7 10 10 7 15 15 6 5 4 7 9 4 5 8 8 7 6 8 12 13 8 8 11 9 8 8 7 8 8 8 9 7 7 9 7 6 4 5 6 7 9 9 10 12 13 13 13 14 16 17 17 15 13 17 18 16 16 16
11 10 9 10 11 13 15 12 10 16 16 9 9 9 8 6 2 2 1 2 5 6 8 12 11 8 11 11 11 14 9 7 5 5 16 16 5 3 4 7 8 4 6 12 14 13 12 8 8 11 10 12 14 11 8 6 7 11 12 10 11 10 11 12 8 4 4 5 5 5 10 8 8 13 15 12 12 13 15 16 16 14 14 18 17 16 17 17
11 10 8 9 10 13 13 8 9 17 12 4 6 10 11 7 3 4 3 3 4 5 6 7 6 4 7 6 9 11 3 2 2 2 12 15 6 4 3 4 5 7 10 11 12 13 13 7 6 9 11 12 13 11 8 7 8 12 11 12 15 14 13 14 9 6 5 6 4 3 8 9 8 14 15 10 8 11 11 12 15 15 15 15 14 15 17 14
11 10 8 9 10 12 10 4 9 15 7 3 7 11 10 7 6 5 2 2 5 3 1 2 2 2 3 2 5 5 3 4 3 1 8 9 5 3 3 3 2 7 8 6 7 6 7 7 7 9 10 11 11 8 7 11 9 11 7 12 14 12 10 11 7 4 4 6 4 3 3 8 6 8 11 9 8 12 10 11 14 14 12 13 13 14 14 10
12 11 9 9 9 10 5 2 9 10 3 3 11 11 9 7 5 4 2 3 6 2 2 1 1 1 2 1 2 5 1 4 0 2 3 3 3 2 3 5 3 4 4 2 5 4 4 7 8 11 11 8 7 8 9 12 9 8 4 9 10 9 9 8 6 6 4 4 5 2 3 6 12 7 10 12 12 13 12 12 14 14 13 13 14 15 13 10
13 12 9 9 9 7 4 4 7 5 1 7 12 9 7 5 4 2 3 4 5 3 2 2 1 2 1 2 1 4 2 1 2 1 1 2 1 2 4 6 4 4 2 4 7 5 2 6 9 12 9 7 9 12 10 10 8 6 2 6 6 6 7 3 3 5 2 4 6 4 6 3 14 9 8 10 11 11 13 14 16 15 14 14 15 16 14 9
16 13 11 10 9 7 5 5 5 3 5 8 9 6 5 4 2 3 3 3 3 2 1 0 1 2 2 1 2 1 1 2 1 2 2 1 1 2 3 5 2 4 4 4 9 6 0 4 7 7 7 8 9 7 7 10 9 4 5 3 3 2 1 3 1 1 3 5 7 5 6 3 14 10 6 6 7 9 12 13 14 14 12 14 15 15 13 8
17 16 14 11 10 10 7 7 8 6 5 7 7 5 4 3 2 4 3 5 2 1 0 1 1 1 3 2 2 2 0 2 2 3 3 1 2 3 0 1 2 2 5 4 7 8 4 2 2 4 4 5 3 1 2 6 5 0 5 3 6 5 4 4 1 4 3 9 6 9 9 6 10 7 7 6 7 11 11 9 11 10 10 14 14 12 13 8
19 18 16 15 15 12 6 5 10 8 3 3 4 4 3 2 4 3 7 4 1 2 1 0 1 2 3 3 1 1 1 1 1 1 0 0 2 3 1 0 2 2 4 6 7 9 7 3 2 3 2 4 5 2 2 3 2 2 3 3 3 5 4 5 4 5 2 11 5 13 14 11 11 7 4 4 5 8 10 9 10 11 12 14 12 11 12 8
20 20 19 18 19 17 12 7 9 10 4 2 4 3 2 2 1 6 6 2 2 3 2 2 3 3 3 2 2 3 3 1 2 4 3 3 2 2 3 5 4 2 3 5 5 6 7 9 7 2 1 5 5 1 3 6 2 3 4 4 1 4 3 2 3 1 5 9 5 10 11 9 14 10 4 10 9 6 9 10 12 12 13 13 11 12 10 6
19 19 20 21 20 21 19 14 11 11 4 2 4 4 4 2 4 7 3 0 3 3 2 2 3 5 5 2 3 4 3 3 4 4 3 4 3 4 4 5 4 1 4 4 2 2 5 9 6 3 3 6 9 6 4 2 3 7 6 6 5 4 2 3 3 3 6 8 6 6 6 5 11 7 8 16 15 13 12 11 11 11 13 14 12 10 6 6
17 18 21 22 21 22 22 19 17 12 5 5 5 5 4 4 5 2 2 5 6 2 2 3 1 3 3 3 4 4 2 4 5 5 2 3 2 3 4 7 7 4 2 2 2 3 4 10 5 10 4 7 13 13 13 6 4 7 5 5 7 5 4 4 5 7 6 7 5 4 5 4 5 4 7 11 11 9 8 10 11 11 11 10 8 5 3 6
14 18 21 21 20 21 22 22 21 15 9 7 5 4 4 6 4 1 2 4 4 4 5 8 4 2 3 4 4 3 3 5 3 5 4 4 4 4 3 6 10 7 3 2 3 4 6 11 7 9 4 10 14 15 13 6 0 4 4 3 6 6 6 5 6 7 2 4 5 3 4 6 4 6 7 7 9 9 9 10 10 11 11 8 7 4 4 6
11 15 18 19 20 20 22 23 21 18 12 7 4 2 5 5 3 3 3 2 1 3 7 9 4 2 4 2 3 3 3 4 2 3 2 3 3 4 3 3 9 12 9 6 4 3 6 8 4 4 1 6 11 8 8 8 4 2 4 4 6 4 5 5 6 4 0 3 8 6 7 6 5 8 7 5 9 10 10 11 11 12 12 9 9 6 6 6
9 11 10 14 17 18 21 23 22 20 11 5 4 5 5 4 4 4 2 2 3 3 4 3 3 2 4 3 3 3 3 3 2 2 2 2 3 5 5 4 6 13 15 11 5 4 7 7 3 5 4 5 2 2 1 4 5 5 4 6 2 3 2 3 1 3 3 6 7 8 13 10 6 8 6 7 10 12 13 13 13 12 11 11 9 6 6 6
6 6 6 11 16 17 21 25 23 17 6 2 6 7 5 4 3 4 3 4 5 4 1 2 2 1 2 4 4 3 4 4 1 1 2 2 3 4 5 4 5 12 19 17 7 4 5 7 6 2 4 3 3 3 4 4 4 6 4 3 3 1 2 2 3 3 5 8 7 9 15 11 6 6 4 6 10 14 15 13 10 10 10 9 7 5 5 5
4 2 3 7 13 17 24 28 22 11 3 3 6 7 5 3 3 3 3 4 3 1 2 5 4 3 3 4 4 3 3 3 2 3 3 2 4 3 4 4 4 5 11 12 7 4 2 5 6 1 1 2 3 1 5 2 1 2 1 2 1 3 4 3 3 3 5 9 8 9 11 10 8 5 2 6 7 10 14 11 7 7 7 6 5 5 6 6
3 2 2 5 14 22 27 25 14 5 3 4 5 5 4 2 4 6 8 6 4 2 4 6 5 4 4 3 4 3 3 4 3 5 4 3 6 6 3 2 3 5 5 4 6 5 2 4 7 3 3 1 0 3 6 6 5 4 3 4 3 3 2 1 3 2 4 7 7 8 9 10 8 4 5 3 3 6 7 7 5 5 5 6 6 6 7 7
3 2 2 9 20 28 26 14 4 3 3 3 4 4 3 3 4 5 6 7 5 3 2 4 4 4 3 3 4 3 2 2 3 4 4 4 7 7 3 0 5 6 8 3 2 3 0 3 5 4 3 3 4 6 7 9 8 5 6 8 7 7 4 4 6 5 4 5 6 8 9 10 7 2 4 3 3 5 2 2 5 6 5 7 6 6 7 7
4 3 3 14 28 32 19 4 3 4 3 3 3 3 3 4 4 4 4 5 5 4 3 3 4 5 5 6 7 5 3 3 4 5 5 7 9 8 6 10 9 6 6 5 3 1 1 1 4 5 4 6 10 8 5 8 7 3 2 4 5 6 5 7 9 6 4 4 5 8 9 10 8 2 3 5 4 5 3 3 6 6 6 7 7 5 3 4
3 2 3 18 34 29 11 3 5 4 4 3 2 3 3 3 3 4 6 6 6 5 5 5 7 8 8 8 8 6 5 5 7 8 8 8 11 13 14 18 19 9 4 4 3 3 3 1 1 4 4 6 11 11 5 2 2 2 3 3 5 5 6 8 6 3 3 4 5 8 9 8 8 6 6 8 6 5 6 7 7 7 7 7 7 7 5 6
3 2 1 17 33 24 6 5 6 5 5 4 4 5 3 2 4 7 7 7 6 4 5 6 7 8 7 6 7 8 8 6 8 10 10 7 9 14 17 19 20 12 3 2 2 1 1 0 1 2 5 6 8 10 9 5 2 2 4 5 8 10 8 6 4 3 4 7 10 11 9 7 7 6 7 11 12 10 10 9 8 7 6 6 7 7 7 8
2 2 1 10 22 15 4 5 6 5 7 8 9 8 6 4 5 10 13 10 7 6 5 4 3 4 5 5 6 8 10 9 7 7 7 6 6 9 13 17 17 13 8 7 8 3 2 3 2 4 7 8 8 8 7 4 2 2 3 5 7 8 7 5 4 5 8 11 13 11 11 11 8 8 13 17 18 17 16 14 13 10 9 9 10 9 8 8
1 3 2 4 9 6 4 4 5 6 6 8 8 8 10 10 6 8 11 10 10 10 7 4 1 2 4 7 8 9 10 11 9 6 5 6 5 4 8 13 14 14 13 11 12 5 2 4 8 12 13 12 13 13 9 5 5 6 8 9 8 6 6 4 3 5 7 8 10 12 14 15 10 11 18 21 21 21 19 16 14 11 12 15 14 11 8 8
2 3 3 2 3 4 6 6 7 7 7 7 5 4 10 14 8 5 8 8 9 8 6 6 7 8 7 9 11 11 12 13 13 12 11 10 9 7 7 9 9 13 14 10 11 6 2 6 14 18 19 18 17 18 17 14 14 15 15 15 14 12 11 9 7 10 9 7 11 13 13 14 12 13 19 22 22 21 17 16 15 14 15 15 13 10 9 10
3 3 2 2 1 4 6 5 7 9 11 11 6 4 10 13 9 7 6 6 6 6 4 5 10 14 15 14 12 10 10 11 12 13 13 12 12 11 10 10 10 13 11 7 7 6 3 8 13 16 19 20 19 21 21 20 19 20 20 21 20 19 18 16 17 18 16 14 15 14 14 16 15 15 20 23 23 21 20 21 21 18 17 15 12 11 12 15
2 2 3 3 2 3 4 2 3 5 8 9 7 7 12 14 12 10 5 2 4 6 7 8 11 14 17 18 14 11 11 11 12 12 11 12 14 12 11 12 12 12 11 9 6 5 4 7 11 15 18 18 19 21 23 23 22 21 23 23 22 21 22 23 24 25 25 23 20 19 23 24 19 18 23 24 21 19 19 22 23 22 22 19 15 15 17 18
2 2 2 3 1 4 5 4 4 5 4 5 5 6 9 10 11 8 3 3 4 3 6 11 11 10 11 12 14 15 14 14 15 14 9 10 11 8 8 9 7 6 8 9 6 5 7 9 12 15 14 14 18 21 22 23 23 23 24 23 22 23 24 26 25 24 23 23 24 26 27 24 20 22 26 24 21 19 19 23 26 26 25 22 17 17 19 16
4 4 3 2 3 4 4 2 1 3 4 5 5 4 4 5 5 5 5 5 7 5 4 7 9 8 9 11 11 12 12 11 13 13 11 11 9 6 5 5 4 4 4 5 5 4 6 9 10 11 11 11 16 20 22 23 23 23 22 21 22 24 23 23 21 19 19 22 25 26 22 18 18 22 23 23 23 23 24 26 27 26 26 23 18 19 19 14
5 5 3 2 3 5 4 2 1 3 5 6 4 3 3 4 4 5 5 4 3 5 6 7 9 8 8 10 10 9 11 11 12 13 12 13 13 11 10 9 9 8 5 3 3 2 4 6 6 8 9 10 14 19 20 18 15 14 16 21 26 27 25 23 20 19 22 22 19 18 17 18 19 19 20 22 23 23 23 23 24 24 23 20 17 18 19 16
Wind_Direction
357 357 356 357 357 357 358 358 359 360 2 1 1 0 359 359 358 357 355 354 354 353 354 354 354 349 342 337 330 319 308 291 284 275 248 256 263 253 255 245 225 229 233 212 179 175 177 196 220 218 220 239 191 197 209 185 121 65 91 170 244 234 226 211 216 252 198 216 238 238 200 169 230 268 263 320 270 229 237 249 248 264 307 52 138 146 149 157
350 350 350 351 350 350 351 351 352 352 354 354 355 355 354 355 353 354 352 350 349 349 349 349 350 347 343 337 328 325 317 301 292 274 259 262 257 247 248 244 245 246 231 198 182 184 175 188 223 212 165 195 213 177 186 205 135 130 152 193 231 216 228 228 236 268 256 208 207 221 212 186 206 205 142 237 258 249 236 254 239 246 274 69 124 142 149 157
345 345 344 345 346 346 345 344 345 345 346 346 347 348 348 347 346 348 348 346 345 346 345 345 345 344 343 334 327 328 324 324 303 272 271 267 249 239 233 234 246 246 227 196 184 197 202 238 238 192 155 224 247 164 174 242 196 184 168 217 244 224 248 277 279 267 234 203 177 225 214 200 222 177 141 219 252 249 226 235 212 228 233 181 154 151 155 161
342 341 340 341 342 342 341 340 340 339 339 339 340 341 341 341 340 340 342 343 340 340 342 342 342 341 340 335 330 328 334 346 296 260 297 282 245 233 222 222 228 233 225 199 205 219 238 278 279 173 158 227 263 138 173 223 204 185 167 207 238 221 265 275 268 238 206 156 149 201 7 249 241 165 171 182 243 261 232 225 213 222 223 190 178 171 166 169
340 338 337 337 338 339 338 336 335 334 334 334 335 335 336 336 335 335 335 337 336 336 337 338 338 338 338 337 332 330 1 6 292 290 331 304 238 225 217 216 213 221 219 203 217 227 257 274 313 40 157 227 267 128 211 218 182 202 208 216 234 231 269 268 260 233 189 101 137 247 285 249 231 169 198 176 218 250 221 217 218 221 225 190 180 182 176 177
337 336 336 335 336 337 335 334 331 330 329 329 329 330 332 331 330 330 330 333 333 332 332 334 335 335 336 339 334 344 44 310 274 304 328 325 226 214 208 213 210 212 211 203 210 219 264 258 90 344 203 232 236 214 242 226 171 223 246 230 237 235 249 265 267 242 198 168 205 215 230 227 244 256 228 195 226 242 202 198 208 215 226 197 180 176 181 188
334 334 334 334 335 336 334 332 329 327 325 324 324 325 326 326 326 324 325 327 327 327 327 329 330 328 326 315 315 44 95 252 267 278 294 297 218 206 199 210 207 205 204 192 185 183 229 235 214 205 206 248 230 222 256 262 179 216 256 265 256 245 244 262 271 244 202 205 216 197 234 234 228 253 259 220 236 243 232 227 221 213 201 175 172 177 190 195
332 332 333 333 334 335 334 331 328 325 323 321 320 320 320 321 321 319 320 320 320 322 321 324 326 324 311 227 190 19 352 250 266 269 268 247 206 198 196 206 205 204 200 194 190 178 176 222 231 211 230 251 235 246 273 332 231 221 244 263 269 261 258 276 286 259 227 226 219 205 257 235 218 253 294 253 247 247 237 241 244 233 188 159 174 188 195 200
331 332 332 332 332 333 332 332 329 324 322 320 318 316 316 316 316 316 314 314 315 315 315 320 319 310 284 223 113 5 261 243 259 254 242 222 203 198 199 204 203 204 202 208 206 191 167 206 233 206 209 242 257 280 292 0 270 228 234 260 277 276 276 286 289 271 251 237 187 210 254 243 220 289 285 260 249 247 238 233 241 232 218 197 188 193 195 202
331 332 333 332 332 333 332 331 328 324 322 319 316 315 313 314 314 312 309 308 310 310 312 316 312 293 259 221 106 302 258 236 241 233 223 215 206 203 204 204 203 204 207 219 220 212 194 201 228 185 195 247 252 274 294 202 243 246 259 288 279 278 287 275 275 272 258 245 191 206 252 258 208 175 266 263 246 226 230 239 239 224 225 217 202 202 198 202
335 334 333 332 333 333 332 330 328 325 322 319 317 314 314 315 314 311 306 302 302 304 308 310 303 269 229 177 139 229 252 233 233 225 213 209 208 211 211 210 207 205 214 233 241 237 223 220 208 128 218 264 262 297 298 242 275 298 327 318 289 292 301 274 269 269 256 251 202 190 251 281 150 183 243 256 242 166 215 239 240 225 231 225 214 212 202 208
338 336 333 333 332 334 333 329 330 329 324 321 318 317 319 319 317 312 304 299 297 298 301 300 283 238 215 202 214 240 251 239 236 227 211 208 208 213 215 215 214 212 214 223 245 250 238 233 159 161 240 270 318 306 280 258 341 304 355 319 289 308 299 272 268 257 229 221 177 148 280 283 229 221 238 249 247 204 232 247 244 230 232 229 223 218 212 219
337 335 332 333 332 334 334 331 334 332 327 324 322 324 325 323 319 312 304 297 293 293 294 283 251 209 191 252 242 242 245 238 234 227 216 212 208 212 216 215 218 221 220 220 229 239 246 237 175 190 237 236 259 276 263 301 335 294 325 234 281 318 292 268 263 244 220 194 151 131 262 267 241 234 240 251 250 236 244 249 243 235 234 230 227 225 224 225
335 328 326 330 332 335 336 335 336 332 329 327 327 330 329 326 321 312 302 292 288 292 290 263 218 180 172 252 259 246 237 231 228 225 219 210 202 204 211 211 215 220 223 228 233 243 246 233 145 178 262 188 240 298 332 333 291 279 305 222 258 288 274 270 254 173 196 195 154 144 215 259 258 250 242 249 245 228 236 247 243 237 238 234 228 228 233 231
327 324 325 329 332 336 338 337 335 330 330 329 329 331 329 325 319 311 301 288 284 283 272 231 197 160 97 268 265 253 228 221 225 226 224 212 200 197 201 202 207 210 216 224 228 233 214 178 119 145 275 263 221 309 328 329 293 225 237 275 261 207 260 282 269 186 196 226 160 152 197 255 262 264 254 245 236 222 228 243 245 239 238 237 235 229 235 239
318 325 328 331 333 335 338 338 335 333 332 330 328 329 327 322 315 304 294 289 286 267 234 193 192 177 328 277 263 258 220 215 225 222 217 212 210 205 188 183 187 189 194 207 204 192 164 140 144 161 197 283 148 131 24 348 303 257 198 246 257 226 260 291 289 217 178 164 180 193 207 252 261 270 269 254 229 221 224 240 244 242 241 236 237 234 235 244
320 326 330 334 330 332 339 341 339 336 333 331 328 328 325 319 308 298 289 280 280 229 187 171 179 181 258 279 275 268 213 205 212 205 203 205 207 192 170 161 173 172 159 171 174 166 154 138 171 151 142 240 166 120 60 296 269 274 207 229 252 246 258 273 292 301 146 145 198 221 227 248 257 268 280 277 237 218 221 236 241 241 244 239 237 238 236 241
323 326 332 333 328 335 344 344 342 339 334 330 329 327 321 314 307 304 266 163 124 114 184 254 59 157 254 248 240 244 182 193 195 193 199 195 187 180 171 161 155 142 114 118 184 160 165 153 142 154 289 232 181 146 174 231 240 234 203 223 254 249 254 257 267 250 153 168 202 219 233 249 259 267 271 270 255 230 227 233 241 242 244 244 241 239 237 240
324 330 337 337 337 346 347 346 344 341 337 332 332 328 316 318 343 75 115 134 124 99 194 231 174 167 258 243 224 183 120 169 177 190 197 186 182 185 186 179 124 126 124 175 217 171 153 121 116 146 239 229 204 184 203 226 233 226 226 241 252 250 256 258 263 225 177 201 217 218 233 242 252 258 258 263 262 254 247 240 244 246 247 249 246 242 238 241
326 334 343 346 349 351 349 350 348 348 348 340 340 339 330 2 11 27 67 153 208 215 222 205 196 228 283 272 154 141 140 157 178 204 193 182 175 169 186 167 86 135 183 163 188 183 157 173 172 190 226 228 203 195 216 232 243 252 257 262 257 256 264 261 267 253 190 206 230 221 236 241 246 253 252 257 263 261 257 249 245 245 245 249 249 248 244 245
326 333 344 351 356 358 355 354 358 5 1 352 355 1 35 42 313 308 329 284 256 249 252 239 222 237 255 231 166 169 166 184 236 226 188 179 160 152 192 163 130 213 207 169 191 217 164 190 205 212 226 226 188 197 219 231 238 247 251 260 261 251 261 261 262 264 207 201 249 236 242 248 247 253 255 252 249 253 253 247 249 247 242 247 252 253 250 250
321 328 341 350 360 4 358 359 13 13 4 7 24 39 66 35 4 260 315 294 280 259 252 255 246 245 247 244 216 191 182 227 245 227 182 176 164 178 197 160 181 210 170 157 253 255 210 221 221 220 229 234 212 208 214 225 229 238 243 253 261 249 266 268 254 261 227 189 255 249 246 251 249 253 254 245 235 244 250 245 249 252 248 250 251 253 252 252
312 322 335 342 354 4 359 1 16 14 9 17 33 39 18 13 29 95 162 272 289 266 242 243 242 238 233 242 223 189 200 224 229 220 179 170 177 198 177 177 200 193 145 182 212 221 226 233 224 219 226 236 241 235 222 240 241 236 240 248 259 249 261 268 250 255 233 205 252 260 257 253 250 260 257 245 238 244 252 251 252 254 251 251 250 253 256 252
303 313 324 329 340 358 358 357 8 10 9 17 30 25 8 0 5 18 348 247 277 262 243 230 227 228 225 230 199 185 216 224 214 223 181 170 160 171 185 192 192 190 193 202 211 226 238 229 202 201 209 223 240 243 223 242 257 242 235 235 249 245 241 252 265 297 284 266 275 278 283 268 227 244 253 245 238 242 251 255 259 257 249 252 254 253 255 252
291 296 307 317 326 349 355 358 4 359 359 35 29 7 0 350 334 4 6 282 274 272 269 239 219 229 220 211 180 180 237 247 202 244 180 175 162 153 209 189 178 216 217 215 224 239 247 230 163 184 209 218 232 241 212 201 248 256 233 218 236 242 240 252 280 324 308 290 278 230 278 279 206 218 241 243 234 240 245 245 250 252 248 252 255 251 251 249
278 281 292 300 311 341 354 4 349 348 4 70 359 344 344 342 325 331 16 319 279 257 280 230 194 202 186 168 160 134 10 281 262 39 161 180 185 157 215 205 206 230 208 213 243 245 240 215 174 187 210 214 224 245 213 192 234 265 219 199 226 237 244 257 272 291 261 265 273 156 243 283 254 216 227 226 225 237 239 237 243 246 245 246 248 251 248 235
267 270 281 287 303 334 354 327 336 352 41 337 335 335 330 334 320 306 6 326 289 180 132 277 346 94 154 236 166 123 201 254 327 42 131 167 212 153 219 222 210 226 170 155 259 245 199 199 198 206 213 211 218 239 218 187 216 263 200 180 206 225 240 244 233 233 236 272 282 174 137 283 280 242 202 204 213 232 241 241 247 244 240 242 243 250 248 223
260 260 264 271 288 315 338 318 327 353 336 323 336 336 333 337 305 327 55 297 287 98 113 270 13 25 14 338 347 124 198 248 103 257 337 88 193 135 216 224 192 230 189 160 236 260 154 186 208 207 207 214 222 230 210 176 213 256 158 173 185 202 226 201 201 240 305 334 280 207 138 259 278 256 183 199 207 224 240 238 244 243 236 241 242 246 248 226
258 252 247 253 267 276 290 295 291 294 311 338 352 341 344 340 293 59 79 251 282 69 94 330 33 324 17 35 307 97 72 356 124 265 341 90 241 92 203 220 183 268 277 204 234 269 176 206 207 181 189 219 226 229 188 177 222 242 118 124 71 75 55 81 208 240 40 306 259 198 148 210 277 265 166 191 204 215 237 234 240 242 234 240 242 245 249 227
256 252 246 240 245 252 253 251 247 260 307 341 1 353 334 317 63 74 242 243 308 325 163 66 327 340 89 122 281 302 46 338 353 353 6 85 0 21 218 202 99 287 293 282 264 259 250 260 207 177 197 205 173 114 163 189 227 114 95 55 22 2 18 51 334 73 51 275 235 175 175 184 270 274 146 180 201 201 218 224 242 249 241 244 244 246 250 226
256 251 247 237 237 235 213 222 234 227 262 349 25 30 354 342 78 149 235 238 346 287 103 89 255 88 121 167 267 280 201 308 25 79 343 57 31 21 18 224 79 32 310 291 280 264 262 272 236 234 206 122 97 96 335 356 13 73 93 73 18 323 3 28 358 62 220 265 208 173 181 181 237 259 149 220 234 210 217 210 224 235 235 243 242 243 246 223
259 251 249 247 245 231 214 225 217 193 182 56 62 52 48 32 229 223 242 0 5 240 170 196 194 151 193 214 262 216 174 238 197 163 181 161 166 195 202 202 163 75 284 251 263 275 264 242 224 258 256 145 135 203 329 355 7 123 112 104 85 294 332 351 320 90 224 258 218 183 181 196 241 254 251 272 280 247 231 213 210 220 230 239 240 241 240 200
262 259 253 250 248 233 224 227 205 183 182 126 104 56 73 127 237 229 221 278 237 218 131 175 191 176 163 139 248 208 168 235 194 168 193 158 184 242 257 235 184 187 248 220 267 297 284 268 217 169 279 186 162 188 239 280 201 177 154 146 171 214 246 248 261 256 251 260 243 189 172 237 273 271 229 242 246 231 223 221 220 220 223 229 235 242 229 172
260 263 257 253 250 239 230 224 213 202 183 146 119 72 99 194 255 268 170 213 243 272 29 13 342 199 175 188 221 176 174 246 177 156 191 145 171 247 254 240 216 220 223 186 268 194 243 286 200 159 217 189 177 205 214 195 182 194 171 160 190 193 176 191 230 243 256 281 269 173 156 231 282 282 222 229 247 247 234 232 235 235 234 236 248 253 178 161
256 256 257 251 244 239 230 222 217 206 168 127 94 91 163 215 253 286 232 243 274 322 345 342 338 252 265 267 247 204 213 249 164 149 187 176 189 212 209 213 204 197 152 189 258 176 216 267 223 176 180 160 180 214 206 162 247 232 136 138 233 213 185 216 252 237 216 321 286 208 199 228 251 281 270 260 270 270 259 251 249 251 249 246 253 238 172 166
244 245 249 236 229 231 223 216 210 192 162 121 93 162 204 226 208 184 229 251 286 353 341 331 325 253 277 298 287 276 244 245 191 145 212 212 207 215 211 209 196 193 187 197 229 204 226 265 233 187 223 175 186 205 185 168 194 199 131 192 235 182 171 230 280 281 156 272 272 260 256 273 312 295 285 290 283 274 269 265 257 251 244 236 236 219 191 185
219 228 231 219 225 227 216 212 200 179 158 128 161 204 220 234 209 195 253 293 280 322 348 324 329 320 299 306 299 301 309 284 226 168 229 229 224 218 212 228 194 192 206 216 234 246 241 263 248 182 224 250 193 98 259 214 149 120 166 213 224 50 128 180 262 311 285 256 268 275 271 281 301 288 319 355 315 286 267 257 251 247 236 230 226 205 196 195
215 220 231 224 227 222 207 201 184 161 136 141 205 226 219 213 206 197 250 295 284 304 56 211 257 290 274 276 281 301 322 311 297 179 258 248 237 193 175 225 213 199 216 221 231 269 249 259 274 196 210 274 47 85 275 279 138 144 199 206 126 135 232 168 171 230 251 251 258 272 276 279 256 255 309 316 288 284 276 262 252 249 238 232 225 202 199 190
210 221 274 228 219 212 195 184 167 144 129 181 212 233 216 229 260 225 256 298 297 293 214 216 217 219 242 254 271 299 294 272 299 309 283 236 245 211 164 221 241 222 229 223 229 267 266 250 265 338 284 304 33 183 217 236 212 165 323 340 101 184 186 179 188 181 224 247 257 268 277 276 249 217 228 270 289 309 298 280 258 254 249 234 214 202 200 189
205 242 280 182 192 191 177 165 152 142 190 193 214 223 200 243 261 232 230 232 228 238 230 218 205 214 237 253 263 268 258 253 268 284 273 249 273 273 226 198 22 348 298 232 224 256 325 266 261 322 340 295 160 222 192 189 211 200 215 247 246 221 188 223 237 199 219 238 247 252 257 268 263 182 157 230 17 12 316 293 285 283 273 246 213 196 191 190
210 253 215 170 176 170 157 149 155 178 202 227 233 225 206 226 238 229 219 207 211 240 211 196 206 208 202 230 246 220 208 264 237 242 263 269 276 274 247 51 37 7 337 337 217 237 280 268 275 314 324 283 265 243 209 208 212 195 208 218 215 216 223 259 250 229 228 238 242 246 252 263 263 152 146 192 61 36 5 346 339 327 303 279 244 208 190 187
227 242 175 171 171 161 149 162 213 174 203 227 231 234 210 217 231 238 231 211 213 230 220 212 220 212 204 222 230 207 201 241 224 219 225 228 246 257 275 302 322 353 338 312 281 299 70 189 276 293 285 286 289 278 230 230 245 262 250 230 232 226 213 234 244 244 251 246 246 253 254 255 257 291 318 285 326 355 308 298 326 307 284 280 267 258 251 227
226 239 164 176 173 161 153 223 200 195 225 221 258 252 202 220 241 232 229 220 213 212 206 209 217 220 219 217 219 208 198 210 210 214 222 227 240 243 252 278 292 307 331 293 290 358 19 72 273 295 296 300 303 305 305 263 225 266 269 232 238 240 227 234 246 266 265 233 242 258 255 256 266 284 305 300 318 336 299 295 308 292 283 288 286 293 296 270
235 241 170 185 181 172 172 217 201 219 226 227 253 239 224 253 234 233 233 216 203 204 213 219 217 222 224 209 208 205 198 213 223 221 226 231 237 238 239 250 263 269 261 218 218 21 355 16 70 306 290 299 308 302 291 280 201 211 233 218 223 232 240 259 270 271 260 240 242 258 260 253 263 285 298 295 296 294 285 284 280 268 264 270 276 278 264 256
277 233 221 193 191 190 210 214 209 222 219 230 239 234 246 255 221 229 238 234 219 204 217 240 210 204 215 208 218 216 203 215 237 225 218 228 244 248 242 238 241 248 234 175 146 149 198 180 187 240 250 253 257 257 257 260 268 270 266 251 236 223 223 244 260 246 245 241 238 248 256 250 262 299 293 284 282 280 277 277 275 265 248 244 250 250 247 247
297 236 221 190 199 217 246 223 219 219 214 228 235 226 231 240 241 229 228 240 241 224 230 265 238 202 217 215 235 244 229 225 230 225 220 234 251 251 236 236 237 242 233 176 146 159 188 169 205 223 226 231 237 242 244 247 259 265 266 267 270 262 248 259 274 245 248 258 247 242 252 259 267 282 277 274 275 275 275 276 275 267 257 256 254 246 241 240
260 249 220 189 200 221 229 227 226 219 208 214 217 209 225 235 246 228 208 222 230 220 230 242 226 228 231 227 237 244 240 235 230 231 236 236 245 261 259 255 245 241 237 197 161 160 159 205 220 224 227 229 232 240 247 249 250 250 252 257 263 267 267 265 258 252 262 277 259 250 261 271 266 264 269 273 273 274 278 279 275 267 260 257 256 258 258 258
245 261 261 286 267 220 221 224 230 230 224 220 215 227 243 241 233 222 218 229 222 200 209 234 224 225 229 233 242 248 245 245 239 236 239 238 245 260 266 261 249 241 241 221 177 161 187 227 225 226 230 228 228 235 241 245 247 246 247 250 253 256 259 259 256 253 252 253 255 261 270 267 261 259 263 266 269 275 279 278 275 271 265 258 254 257 260 264
277 282 292 330 328 252 265 306 312 275 244 237 232 228 242 248 241 233 224 238 240 206 208 232 229 224 230 232 236 242 238 242 245 236 232 234 234 242 255 256 247 232 226 229 212 181 209 233 222 232 240 233 228 231 234 240 245 247 247 247 249 253 254 254 254 253 252 254 259 263 261 258 256 255 256 259 265 271 275 275 275 272 268 263 259 259 261 266
289 285 300 337 314 267 287 302 305 307 284 258 249 230 235 251 258 261 252 240 266 236 219 243 252 256 264 258 250 247 243 249 260 259 261 257 240 233 248 252 257 243 222 231 234 195 209 226 222 234 247 239 232 233 232 235 240 245 248 249 249 251 251 250 251 252 255 259 257 255 255 256 254 252 255 258 261 263 265 268 270 269 268 267 265 263 263 264
303 325 334 313 276 256 263 265 273 298 277 242 236 240 248 262 284 315 307 258 255 267 272 288 306 322 320 303 286 279 286 297 295 298 310 300 282 281 276 263 285 293 231 225 248 209 210 230 227 234 247 237 231 234 234 233 236 239 244 247 247 247 246 246 245 244 245 249 252 251 251 251 249 250 254 257 256 256 256 259 262 265 268 271 270 268 268 263
312 339 358 327 277 253 249 277 300 269 257 246 253 290 298 304 343 350 318 285 279 301 323 337 334 330 317 308 307 307 310 309 298 298 298 287 281 280 277 273 270 265 249 242 264 212 212 243 235 230 245 240 229 234 236 233 233 232 228 231 237 242 246 247 247 244 241 241 244 247 246 247 248 249 252 254 252 252 250 251 256 262 268 274 274 270 270 265